Des Moines, IA

12:06 PM CST on February 11, 2016 (GMT -0600)
Des Moines International

Weather History for KDSM - April, 2013

Change the Weather History Date:

Sunday, April 21, 2013

  Actual Average Record
Temperature  
Mean Temperature 56 °F 54 °F  
Max Temperature 69 °F 65 °F 91 °F (1980)
Min Temperature 43 °F 43 °F 24 °F (1966)
Degree Days  
Heating Degree Days 9 12  
Month to date heating degree days 401 322  
Since 1 July heating degree days 5730 5949  
Cooling Degree Days 0 1  
Month to date cooling degree days 0 4  
Year to date cooling degree days 0 5  
Growing Degree Days 6 (Base 50)    
Moisture  
Dew Point 36 °F    
Average Humidity 46    
Maximum Humidity 62    
Minimum Humidity 29    
Precipitation  
Precipitation 0.15 in 0.14 in 1.66 in (1984)
Month to date precipitation 6.37 2.47  
Year to date precipitation 10.89 7.05  
Snow  
Snow 0.00 in 0.10 in 1.00 in (1918)
Month to date snowfall T 1.6  
Since 1 July snowfall 48.3 35.1  
Snow Depth 0.00 in    
Sea Level Pressure  
Sea Level Pressure 30.18 in    
Wind  
Wind Speed 13 mph (SSE)    
Max Wind Speed 30 mph    
Max Gust Speed 40 mph    
Visibility 10 miles    
Events Rain    
T = Trace of Precipitation, MM = Missing Value Source: NWS Daily Summary

Daily Weather History Graph

Daily Weather History Graph

Search for Another Location

Airport or City:

Trip Planner

Search our weather history database for the weather conditions in past years. The results will help you decide how hot, cold, wet, or windy it might be!

Date:

Astronomy

Apr. 21, 2013 Rise Set
Actual Time 6:25 AM CDT 8:01 PM CDT
Civil Twilight 5:56 AM CDT 8:31 PM CDT
Nautical Twilight 5:20 AM CDT 9:06 PM CDT
Astronomical Twilight 4:43 AM CDT 9:44 PM CDT
Moon 3:45 PM CDT (4/21) 3:51 AM CDT (4/21)
Length of Visible Light 14h 35m
Length of Day
13h 36m
Waxing Gibbous, 80% of the Moon is Illuminated
Apr 21
Waxing Gibbous
Apr 25
Full
May 2
Last Quarter
May 9
New
May 17
First Quarter

Hourly Weather History & Observations

Time (CDT) Temp. Windchill Dew Point Humidity Pressure Visibility Wind Dir Wind Speed Gust Speed Precip Events Conditions
12:54 AM 44.1 °F 37.7 °F 26.1 °F 49% 30.24 in 10.0 mi ESE 12.7 mph - N/A   Overcast
1:54 AM 43.0 °F 35.7 °F 27.0 °F 53% 30.24 in 10.0 mi SE 15.0 mph - N/A   Overcast
2:54 AM 43.0 °F 37.2 °F 28.0 °F 56% 30.25 in 10.0 mi ESE 10.4 mph - N/A   Overcast
3:54 AM 43.0 °F 41.3 °F 28.9 °F 58% 30.26 in 10.0 mi Variable 3.5 mph - N/A   Overcast
4:54 AM 43.0 °F 38.8 °F 28.9 °F 58% 30.24 in 10.0 mi ESE 6.9 mph - N/A   Overcast
5:54 AM 43.0 °F 38.8 °F 30.0 °F 60% 30.24 in 10.0 mi ESE 6.9 mph - N/A   Overcast
6:54 AM 43.0 °F 38.2 °F 30.9 °F 62% 30.25 in 10.0 mi ESE 8.1 mph - N/A   Overcast
7:54 AM 45.0 °F 39.7 °F 32.0 °F 60% 30.26 in 10.0 mi ESE 10.4 mph - N/A   Overcast
8:54 AM 48.0 °F - 34.0 °F 58% 30.25 in 10.0 mi SE 16.1 mph - N/A   Overcast
9:54 AM 52.0 °F - 36.0 °F 54% 30.24 in 10.0 mi SSE 12.7 mph - N/A   Overcast
10:54 AM 57.0 °F - 37.9 °F 49% 30.22 in 10.0 mi South 18.4 mph - N/A   Mostly Cloudy
11:54 AM 62.1 °F - 39.9 °F 44% 30.19 in 10.0 mi South 16.1 mph 24.2 mph N/A   Scattered Clouds
12:54 PM 66.0 °F - 41.0 °F 40% 30.16 in 10.0 mi SSW 19.6 mph 27.6 mph N/A   Mostly Cloudy
1:54 PM 68.0 °F - 41.0 °F 37% 30.12 in 10.0 mi South 18.4 mph 32.2 mph N/A   Mostly Cloudy
2:54 PM 66.9 °F - 37.9 °F 34% 30.11 in 10.0 mi South 20.7 mph - N/A   Mostly Cloudy
3:54 PM 66.9 °F - 37.0 °F 33% 30.09 in 10.0 mi South 21.9 mph 31.1 mph N/A   Mostly Cloudy
4:54 PM 66.9 °F - 37.0 °F 33% 30.08 in 10.0 mi South 19.6 mph 27.6 mph N/A   Mostly Cloudy
5:54 PM 66.9 °F - 34.0 °F 30% 30.08 in 10.0 mi South 19.6 mph 31.1 mph N/A   Mostly Cloudy
6:54 PM 64.9 °F - 37.0 °F 36% 30.08 in 10.0 mi South 12.7 mph 23.0 mph N/A   Overcast
7:54 PM 63.0 °F - 37.9 °F 40% 30.09 in 10.0 mi South 12.7 mph - N/A   Overcast
8:54 PM 57.9 °F - 45.0 °F 62% 30.12 in 6.0 mi NNW 5.8 mph - 0.01 in Rain Rain
9:54 PM 57.9 °F - 45.0 °F 62% 30.12 in 10.0 mi SE 10.4 mph - 0.06 in   Mostly Cloudy
10:54 PM 57.9 °F - 43.0 °F 58% 30.12 in 10.0 mi SSE 10.4 mph - N/A   Overcast
11:54 PM 55.9 °F - 45.0 °F 67% 30.15 in 6.0 mi NNW 13.8 mph - 0.01 in Rain Light Rain